Regional Weather Roundup
Issued by NWS Green Bay, WI

Home | Current Version | Previous Version | Text Only | Print | Product List | Glossary On
Versions: 1 2 3 4 5 6 7 8 9 10 11 12 13 14 15 16 17 18 19 20 21 22 23 24 25 26 27 28 29 30 31 32 33 34 35 36 37 38 39 40 41 42 43 44 45 46 47 48 49 50
000
ASUS43 KGRB 031311
RWRGRB

NORTH-CENTRAL AND NORTHEAST WISCONSIN REGIONAL WEATHER ROUNDUP
NATIONAL WEATHER SERVICE GREEN BAY WI
800 AM CDT MON AUG 03 2015

WIZ005-009-010>012-018-019-031400-
NORTH CENTRAL WISCONSIN

CITY           SKY/WX    TMP DP  RH WIND       PRES   REMARKS
IRONWOOD       PTSUNNY   59  50  72 W9        29.75S
MANITOWISH WTR CLOUDY    57  51  80 W8        29.79S
ARBOR VITAE    SUNNY     59  52  75 W7        29.79S
EAGLE RIVER    CLOUDY    59  49  69 W6        29.79R
LAND O LAKES   CLOUDY    59  50  73 CALM      29.79S
RHINELANDER    SUNNY     59  51  75 W10       29.81R
PHILLIPS       SUNNY     56  49  77 W7        29.82R
ANTIGO         MOSUNNY   57  52  84 W7        29.81S
TOMAHAWK       SUNNY     56  50  80 W9        29.82S
MERRILL        NOT AVBL
$$

WIZ013-073-031400-
NORTHEAST WISCONSIN

CITY           SKY/WX    TMP DP  RH WIND       PRES   REMARKS
IRON MOUNTAIN  SUNNY     63  51  65 VRB7      29.74S
MARINETTE      PTSUNNY   61  52  72 CALM      29.75S
OCONTO         MOSUNNY   60  58  93 W7        29.77S
$$

WIZ017-030-035>037-045-031400-
CENTRAL WISCONSIN

CITY           SKY/WX    TMP DP  RH WIND       PRES   REMARKS
MEDFORD        SUNNY     58  50  73 W7        29.84R
WAUSAU         SUNNY     60  50  69 NW9       29.81R
MOSINEE        SUNNY     61  50  67 W10       29.84R
MARSHFIELD     SUNNY     61  50  67 NW8       29.84S
WISC RAPIDS    SUNNY     62  49  62 NW8       29.85R
STEVENS POINT  SUNNY     59  49  68 W8        29.84R
WAUPACA        SUNNY     65  53  65 W9        29.82S
SHAWANO        SUNNY     62  55  78 W7        29.80R
CLINTONVILLE   SUNNY     61  52  72 W8        29.80S
$$

WIZ038-039-048-051-031400-
FOX VALLEY

CITY           SKY/WX    TMP DP  RH WIND       PRES   REMARKS
NWS GREEN BAY  SUNNY     63  57  81 W9        29.79R
APPLETON       MOSUNNY   61  54  77 W10       29.81R
OSHKOSH        SUNNY     63  54  72 W8        29.81R
FOND DU LAC    SUNNY     64  55  72 W12       29.82R
$$

WIZ022-050-052-031400-
EAST CENTRAL WISCONSIN

CITY           SKY/WX    TMP DP  RH WIND       PRES   REMARKS
STURGEON BAY   PTSUNNY   63  52  67 NW7       29.79S
MANITOWOC      SUNNY     65  56  72 MISG      29.80R
SHEBOYGAN      SUNNY     66  59  78 W7        29.81R
$$

LMZ563-521-522-541>543-031400-
LAKESHORE

STATION/POSITION TIME  TEMP    WIND        PRES    VSBY  WAVE
                       AIR SEA DIR/SP/G                  HT/PER
                 (UTC) (F)     (DEG/KT/KT) (MB)    (MI)  (FT/S)
SHEBOYGAN LKSHOR 1300   67     290/ 13/ 14 1009.2R
KEWAUNEE LKSHORE 1200   60     300/  5/  7 1007.7R
ALGOMA MARINA    1212           CALM  /  3   N/A
NORTHPORT PIER   1200   65     300/ 11/ 15 1007.1R
N MID LAKE BUOY  1250   64 68  300/ 12/ 16 1006.5R         2/ 3
S GREEN BAY BUOY 1300   61 66  270/ 10/ 10 1009.6
SISTER BAY LKSHO 1248   67     330/ 18/ 20   N/A
STURGEON BAY CG  1201   60     320/  3     1012.1      6   0
CHAMBERS ISLAND  1200   62     270/  4/ 10 1007.5R
MENOMINEE LKSHOR 1200   61     260/  5/  9 1008.4R
$$


USA.gov is the U.S. government's official web portal to all federal, state and local government web resources and services.